[[{"header":{"parameterUnit":"m.s-1","parameterCategory":1,"la1":30.2991,"la2":30.254,"lo1":-89.0895,"lo2":-89.0444,"dy":0.0017,"dx":0.0017,"nx":28,"ny":28,"refTime":"2024-05-14T03:00:00:Z","depth":0,"parameterNumber":2,"parameterNumberName":"U-component_of_WINDS"},"data":[0,0,0,0,0,0,0,0,0,0,0,0,0,0,0,0,0,0,0,0,0,0,0,0,0,0,0,0,0,0,0,0,0,0,0,0,0,0,0,0,0,0,0,0,0,0,0,0,0,0,0,0,0,0,0,0,0,0,2.731,2.7311,0,2.745,2.7452,2.7453,2.7449,2.7447,2.7445,2.7443,2.7591,2.7597,2.7602,0,0,0,0,0,0,0,0,0,0,0,0,0,2.7043,2.7048,2.731,2.7311,2.7313,2.745,2.7452,2.7454,2.7449,2.7447,2.7445,2.7442,2.7589,2.7596,2.7603,0,0,0,0,0,0,0,0,0,0,0,0,0,2.7169,2.7049,2.7309,2.7327,2.733,2.7449,2.7452,2.7454,2.745,2.7447,2.7444,2.7441,2.7587,2.7595,2.7604,2.7715,0,0,2.763,2.7634,0,0,0,0,0,0,0,0,2.7161,2.7178,2.7323,2.7326,2.733,2.7429,2.7412,2.7542,2.745,2.7405,2.7443,2.744,2.754,2.7552,2.7585,2.7722,2.7729,2.7631,2.7636,2.764,2.7642,0,0,0,0,0,0,0,2.7153,2.7172,2.7365,2.7325,2.7329,2.733,2.7345,2.7436,2.7487,2.7408,2.7408,2.7425,2.7541,2.7577,2.7588,2.7731,2.7631,2.7638,2.7644,2.7647,2.7969,2.7972,0,0,0,0,0,0,2.714,2.7165,2.7361,2.737,2.7237,2.7337,2.7354,2.74,2.7486,2.7496,2.7427,2.7424,2.7563,2.7578,2.7594,2.7731,2.764,2.7648,2.7653,2.7965,2.7969,2.7973,0,0,0,0,0,0,2.7134,2.7157,2.7355,2.7267,2.7293,2.7345,2.7397,2.7404,2.744,2.75,2.7509,2.7454,2.7562,2.7581,2.7685,2.7736,2.7652,2.766,2.7961,2.7967,2.7971,2.8005,0,0,0,0,0,0,2.7126,2.7155,2.7197,2.7268,2.7297,2.7443,2.74,2.7409,2.7454,2.7452,2.7528,2.7537,2.7561,2.7672,2.7694,2.7746,2.7666,2.7957,2.7964,2.797,2.8,2.8011,2.802,0,0,0,0,0,2.7117,2.7201,2.7199,2.7222,2.735,2.7446,2.7463,2.7487,2.7458,2.7502,2.754,2.7535,2.7727,2.7683,2.7707,2.7763,2.7954,2.7962,2.7969,2.7995,2.8009,2.802,0,0,0,0,0,0,2.7135,2.7211,2.7209,2.7319,2.7376,2.7445,2.75,2.75,2.7567,2.7562,2.759,2.7608,2.7712,2.7748,2.7698,2.7876,2.7837,2.785,2.7848,2.7862,2.7872,2.7861,2.7673,0,0,0,0,0,2.7152,2.7222,2.7285,2.7376,2.7404,2.7447,2.749,2.7504,2.7564,2.7589,2.7635,2.7696,2.777,2.7818,2.7889,2.8005,2.8022,2.8055,2.8066,2.8074,2.8084,2.815,2.8166,2.7998,2.7998,2.7998,0,0,2.7188,2.7238,2.728,2.7381,2.7427,2.75,2.7468,2.7546,2.7602,2.7601,2.7702,2.7738,2.7808,2.7918,2.7969,2.7951,2.8135,2.8083,2.8089,2.8096,2.8159,2.8175,2.8189,2.8003,2.8002,2.8001,0,0,2.729,2.7334,2.7415,2.7462,2.7531,2.7559,2.7579,2.7648,2.7672,2.7773,2.7775,2.7842,2.7968,2.8018,2.806,2.8182,2.8181,2.8205,2.8258,2.8322,2.8335,2.8347,2.8391,2.8407,2.8216,2.8216,2.8216,0,2.7326,2.7435,2.7457,2.7537,2.7582,2.7584,2.7667,2.7711,2.7801,2.7833,2.7811,2.7971,2.8018,2.8141,2.817,2.8204,2.8229,2.8196,2.8331,2.8343,2.8354,2.8397,2.8414,2.8218,2.8218,2.8218,2.8218,0,2.7476,2.7552,2.7609,2.7694,2.7746,2.7827,2.7863,2.7913,2.7923,2.7954,2.8058,2.8114,2.8198,2.8228,2.8238,2.8353,2.834,2.8324,2.8286,2.8373,2.8413,2.843,2.8222,2.8221,2.822,2.822,0,0,2.7593,2.769,2.7711,2.775,2.7827,2.7887,2.7969,2.8049,2.8092,2.8154,2.8225,2.8332,2.8319,2.8366,2.8383,2.8438,2.8533,2.8416,2.8419,2.8436,2.8664,2.8675,2.8694,2.8532,2.8535,2.8538,2.8658,0,2.7704,2.7847,2.787,2.7997,2.8068,2.8072,2.8144,2.82,2.8231,2.8298,2.8333,2.8409,2.8385,2.8414,2.8469,2.851,2.8579,2.8501,2.8599,2.8603,2.8582,2.8715,2.8727,2.8837,2.8674,2.8677,2.8679,0,2.7851,2.7916,2.805,2.8118,2.8149,2.8212,2.8289,2.8351,2.8416,2.8435,2.8489,2.8499,2.8586,2.8544,2.8665,2.8612,2.8653,2.868,2.8685,2.8695,2.8646,2.8729,2.8873,2.889,2.8704,2.8702,2.87,0,2.7924,2.8045,2.8141,2.8174,2.8256,2.8301,2.8338,2.8399,2.8446,2.8514,2.8545,2.8622,2.8664,2.8725,2.8756,2.8722,2.8876,2.8836,2.8895,2.8895,2.8927,2.8925,2.9081,2.8954,2.8954,2.8953,2.8953,0,2.8045,2.8127,2.8174,2.8233,2.8325,2.8353,2.8444,2.848,2.8535,2.8602,2.8611,2.8674,2.8711,2.8781,2.8806,2.8904,2.8923,2.8942,2.8948,2.8941,2.8939,2.8969,2.8962,2.8958,2.8957,2.8956,2.8955,0,2.8142,2.8177,2.8281,2.835,2.837,2.8435,2.8495,2.8553,2.8585,2.867,2.8692,2.8742,2.8824,2.8862,2.8964,2.8981,2.9092,2.9092,2.907,2.9072,2.9129,2.9124,2.931,2.9336,2.9192,2.9193,2.9195,0,2.8216,2.8279,2.8355,2.84,2.8437,2.851,2.8558,2.8588,2.8638,2.8717,2.8766,2.8848,2.8915,2.9047,2.9094,2.9172,2.9175,2.9235,2.9187,2.9179,2.9177,2.9172,2.9179,2.9244,2.9245,2.9246,2.9247,0,2.8346,2.836,2.8428,2.8503,2.8559,2.862,2.8679,2.8716,2.8756,2.8812,2.8896,2.8948,2.9052,2.9134,2.9216,2.9255,2.9259,2.9262,2.928,2.9274,2.9258,2.9268,2.9094,2.9258,2.9256,2.9256,2.9255,2.9255,2.8434,2.849,2.8552,2.8628,2.8676,2.8732,2.879,2.8829,2.8898,2.8984,2.8998,2.9088,2.9153,2.9262,2.9305,2.9377,2.9363,2.9389,2.9395,2.9401,2.9405,2.9247,2.9392,2.9392,2.9391,2.9391,2.9391,0,2.8564,2.8605,2.8674,2.8756,2.8817,2.8813,2.8879,2.893,2.9008,2.9068,2.9133,2.923,2.931,2.9364,2.9445,2.9492,2.9496,2.9513,2.951,2.9519,2.9413,2.9389,2.9508,2.9508,2.9508,2.9508,2.9508,2.9508,2.8639,2.8734,2.8756,2.8876,2.8916,2.9002,2.9041,2.9093,2.914,2.9247,2.9313,2.9347,2.9405,2.9491,2.9565,2.9579,2.9609,2.9626,2.9639,2.9539,2.9527,2.9515,2.9493,2.9632,2.9632,2.974,2.9741,2.9742]},{"header":{"parameterUnit":"m.s-1","parameterCategory":1,"la1":30.2991,"la2":30.254,"lo1":-89.0895,"lo2":-89.0444,"dy":0.0017,"dx":0.0017,"nx":28,"ny":28,"refTime":"2024-05-14T03:00:00:Z","depth":0,"parameterNumber":3,"parameterNumberName":"V-component_of_WINDS"},"data":[0,0,0,0,0,0,0,0,0,0,0,0,0,0,0,0,0,0,0,0,0,0,0,0,0,0,0,0,0,0,0,0,0,0,0,0,0,0,0,0,0,0,0,0,0,0,0,0,0,0,0,0,0,0,0,0,0,0,-2.3189,-2.319,0,-2.3277,-2.3278,-2.3279,-2.3269,-2.3267,-2.3266,-2.3264,-2.3354,-2.3358,-2.3362,0,0,0,0,0,0,0,0,0,0,0,0,0,-2.301,-2.3014,-2.3189,-2.319,-2.3191,-2.3277,-2.3278,-2.3279,-2.3269,-2.3267,-2.3265,-2.3264,-2.3353,-2.3357,-2.3362,0,0,0,0,0,0,0,0,0,0,0,0,0,-2.3092,-2.3015,-2.3188,-2.3196,-2.3198,-2.3277,-2.3278,-2.328,-2.3269,-2.3267,-2.3265,-2.3263,-2.3352,-2.3357,-2.3362,-2.3439,0,0,-2.338,-2.3382,0,0,0,0,0,0,0,0,-2.3087,-2.3099,-2.3194,-2.3196,-2.3198,-2.326,-2.3248,-2.3333,-2.327,-2.3242,-2.3264,-2.3262,-2.3324,-2.3332,-2.3353,-2.3444,-2.3447,-2.338,-2.3383,-2.3386,-2.3387,0,0,0,0,0,0,0,-2.3082,-2.3095,-2.3224,-2.3195,-2.3198,-2.3195,-2.3204,-2.3264,-2.3294,-2.3244,-2.3244,-2.3254,-2.3325,-2.3348,-2.3355,-2.3449,-2.338,-2.3385,-2.3388,-2.339,-2.3605,-2.3607,0,0,0,0,0,0,-2.3074,-2.309,-2.3221,-2.3226,-2.3136,-2.32,-2.321,-2.3242,-2.3293,-2.3299,-2.3256,-2.3254,-2.334,-2.3349,-2.3358,-2.3451,-2.3386,-2.3391,-2.3394,-2.3603,-2.3606,-2.3608,0,0,0,0,0,0,-2.307,-2.3086,-2.3217,-2.3158,-2.3175,-2.3205,-2.3241,-2.3245,-2.3268,-2.3302,-2.3307,-2.3274,-2.3338,-2.3351,-2.3419,-2.3454,-2.3393,-2.3398,-2.36,-2.3604,-2.3607,-2.3637,0,0,0,0,0,0,-2.3065,-2.3085,-2.3115,-2.3159,-2.3178,-2.3277,-2.3243,-2.3248,-2.3277,-2.3275,-2.3321,-2.3326,-2.3338,-2.3411,-2.3425,-2.3461,-2.3403,-2.3597,-2.3602,-2.3606,-2.3633,-2.3642,-2.3649,0,0,0,0,0,-2.3059,-2.312,-2.3116,-2.3132,-2.3216,-2.3279,-2.329,-2.3302,-2.328,-2.331,-2.3332,-2.3325,-2.3448,-2.3418,-2.3433,-2.3472,-2.3595,-2.36,-2.3606,-2.363,-2.364,-2.3648,0,0,0,0,0,0,-2.3079,-2.3126,-2.3122,-2.3199,-2.3235,-2.3277,-2.3315,-2.3312,-2.3355,-2.3351,-2.3364,-2.3374,-2.3443,-2.3464,-2.343,-2.3548,-2.3519,-2.3527,-2.3532,-2.3542,-2.3549,-2.3542,-2.3407,0,0,0,0,0,-2.3092,-2.314,-2.3178,-2.3242,-2.326,-2.3285,-2.3313,-2.3319,-2.3357,-2.3372,-2.3399,-2.3436,-2.3483,-2.3513,-2.3558,-2.3636,-2.3646,-2.367,-2.3678,-2.3684,-2.3691,-2.3733,-2.3744,-2.3626,-2.3626,-2.3626,0,0,-2.312,-2.3152,-2.3181,-2.3247,-2.3275,-2.3324,-2.3298,-2.335,-2.3386,-2.338,-2.3446,-2.3467,-2.3509,-2.3582,-2.3616,-2.3602,-2.3726,-2.3691,-2.3695,-2.3699,-2.374,-2.3751,-2.3761,-2.3629,-2.3629,-2.3628,0,0,-2.3196,-2.3225,-2.3281,-2.331,-2.3354,-2.3369,-2.3383,-2.3425,-2.3439,-2.3506,-2.3501,-2.3544,-2.3625,-2.3655,-2.368,-2.3766,-2.3761,-2.3781,-2.382,-2.3861,-2.387,-2.3878,-2.3908,-2.3919,-2.3788,-2.3788,-2.3788,0,-2.3225,-2.3298,-2.331,-2.3363,-2.3392,-2.3388,-2.3445,-2.3472,-2.3528,-2.3548,-2.3532,-2.3633,-2.3661,-2.374,-2.3761,-2.3782,-2.3798,-2.3776,-2.3868,-2.3876,-2.3884,-2.3913,-2.3924,-2.379,-2.379,-2.379,-2.3789,0,-2.3332,-2.3383,-2.3423,-2.3477,-2.351,-2.3565,-2.3584,-2.3617,-2.362,-2.3637,-2.3704,-2.3737,-2.3789,-2.3808,-2.3812,-2.3889,-2.3878,-2.3865,-2.3835,-2.3897,-2.3925,-2.3936,-2.3793,-2.3792,-2.3792,-2.3791,0,0,-2.3423,-2.3482,-2.3497,-2.3521,-2.3568,-2.3608,-2.3662,-2.3712,-2.3739,-2.3778,-2.3823,-2.3891,-2.3879,-2.3908,-2.3915,-2.395,-2.4015,-2.3932,-2.3934,-2.3946,-2.4101,-2.411,-2.4123,-2.4012,-2.4014,-2.4016,-2.4097,0,-2.3503,-2.3599,-2.361,-2.3696,-2.3742,-2.3739,-2.3786,-2.3819,-2.3837,-2.3879,-2.3898,-2.3946,-2.3926,-2.3943,-2.3979,-2.4,-2.4047,-2.3994,-2.4054,-2.4056,-2.4043,-2.4137,-2.4148,-2.4223,-2.4108,-2.411,-2.4111,0,-2.3609,-2.3651,-2.374,-2.378,-2.38,-2.3842,-2.3889,-2.3929,-2.3967,-2.3977,-2.4009,-2.4011,-2.4067,-2.4035,-2.4111,-2.4075,-2.41,-2.4114,-2.4117,-2.4123,-2.4087,-2.4145,-2.4247,-2.4259,-2.4128,-2.4127,-2.4126,0,-2.3666,-2.3744,-2.3807,-2.3828,-2.3877,-2.3906,-2.3928,-2.3964,-2.3993,-2.4034,-2.4053,-2.4099,-2.4125,-2.416,-2.4174,-2.415,-2.4249,-2.4219,-2.4259,-2.4258,-2.428,-2.4278,-2.4387,-2.4296,-2.4296,-2.4296,-2.4296,0,-2.3754,-2.3809,-2.3833,-2.3872,-2.3933,-2.3946,-2.4006,-2.4026,-2.4058,-2.4101,-2.4101,-2.414,-2.4157,-2.4199,-2.4211,-2.4271,-2.4283,-2.4292,-2.4295,-2.4292,-2.4291,-2.4308,-2.4303,-2.4299,-2.4298,-2.4298,-2.4297,0,-2.3827,-2.3846,-2.3915,-2.3955,-2.3967,-2.401,-2.4044,-2.4081,-2.4098,-2.4152,-2.4165,-2.4191,-2.4241,-2.4258,-2.4319,-2.4327,-2.4397,-2.4395,-2.4384,-2.4384,-2.4423,-2.4419,-2.4546,-2.4563,-2.4462,-2.4463,-2.4464,0,-2.3882,-2.3924,-2.3969,-2.3997,-2.402,-2.4066,-2.4095,-2.4109,-2.414,-2.4186,-2.4217,-2.4267,-2.4307,-2.4386,-2.441,-2.4456,-2.4455,-2.4497,-2.4462,-2.4458,-2.4455,-2.4453,-2.4456,-2.4503,-2.4504,-2.4505,-2.4506,0,-2.3977,-2.3984,-2.4027,-2.4073,-2.4108,-2.4145,-2.4181,-2.4204,-2.4223,-2.4257,-2.4308,-2.4339,-2.4401,-2.445,-2.4497,-2.4518,-2.4515,-2.4517,-2.4528,-2.4526,-2.4518,-2.4522,-2.4401,-2.4514,-2.4513,-2.4512,-2.4512,-2.4512,-2.4043,-2.408,-2.4116,-2.4164,-2.4192,-2.4225,-2.4262,-2.4283,-2.4326,-2.4377,-2.4382,-2.4436,-2.4472,-2.4535,-2.4559,-2.4601,-2.459,-2.4607,-2.4611,-2.4615,-2.4617,-2.4511,-2.461,-2.461,-2.461,-2.4609,-2.4609,0,-2.4137,-2.416,-2.4204,-2.4254,-2.4291,-2.4285,-2.4323,-2.4355,-2.4403,-2.4437,-2.4476,-2.4534,-2.4581,-2.4608,-2.4655,-2.4684,-2.4684,-2.4696,-2.4694,-2.4699,-2.4625,-2.461,-2.4695,-2.4695,-2.4695,-2.4695,-2.4695,-2.4695,-2.4191,-2.4252,-2.4264,-2.4339,-2.4362,-2.4415,-2.4438,-2.4468,-2.4495,-2.456,-2.4599,-2.4616,-2.4647,-2.4696,-2.4739,-2.4746,-2.4763,-2.4776,-2.4782,-2.4713,-2.4704,-2.4695,-2.4681,-2.478,-2.478,-2.4852,-2.4852,-2.4853]}]]